Location: *
(45.1961°N, 1.9694°E)
Time: 18:35:35
(UTC+00:00)

ADEOS Rocket - Pass Details

Date: 25 August 2019
Orbit: 859 x 1306 km, 98.7° (Epoch: 22 September)

Event Time Altitude Azimuth Distance (km) Brightness Sun altitude
Rises 20:30:37 0° 11° (NNE) 3,625 6.3 -17.8°
Reaches altitude 10° 20:32:58 10° 10° (N) 2,727 5.7 -18.1°
Maximum altitude 20:39:04 71° 288° (WNW) 1,104 3.4 -19.0°
Drops below altitude 10° 20:45:51 10° 205° (SSW) 3,016 5.4 -19.9°
Sets 20:48:33 0° 204° (SSW) 4,035 6.1 -20.3°
